Regional Weather Roundup
Issued by NWS Newport/Morehead, NC

Current Version | Previous Version | Graphics & Text | Print | Product List | Glossary Off
Versions: 1 2 3 4 5 6 7 8 9 10 11 12 13 14 15 16 17 18 19 20 21 22 23 24 25 26 27 28 29 30 31 32 33 34 35 36 37 38 39 40 41 42 43 44 45 46 47 48 49 50

000
ASUS42 KMHX 050712
RWRMHX
WEATHER ROUNDUP FOR EASTERN NORTH CAROLINA
NATIONAL WEATHER SERVICE NEWPORT/MOREHEAD CITY NC
200 AM EST THU MAR 05 2015

NOTE: "FAIR" INDICATES FEW OR NO CLOUDS BELOW 12,000 FEET
WITH NO SIGNIFICANT WEATHER AND/OR OBSTRUCTIONS TO VISIBILITY

NCZ015>017-031-032-045>047-102-103-050800-
NORTH COAST

CITY           SKY/WX    TMP DP  RH WIND       PRES   REMARKS
EDENTON        PTCLDY    60  58  91 SW8       29.90S
ELIZABETH CITY PTCLDY    61  58  90 S15       29.89R
KITTY HAWK     MOSUNNY   60  58  96 S7        29.90S
MANTEO         PTCLDY    57  55  94 S12       29.92S

$$

NCZ045>047-081-094-103-104-050800-
CENTRAL COAST

CITY           SKY/WX    TMP DP  RH WIND       PRES   REMARKS
FRISCO         FOG       57  57 100 SW12      29.97F VSB 1/2
SWANQUARTER      N/A     57 N/A N/A S17G24    29.91S

$$

NCZ095-097-098-100-101-050800-
SOUTHERN COAST

CITY           SKY/WX    TMP DP  RH WIND       PRES   REMARKS
BEAUFORT       FOG       57  57 100 SW12      29.99F VSB 1/2
CEDAR ISLAND     N/A     63 N/A N/A SW12G20   30.00S
JACKSONVILLE   PTCLDY    70  64  81 SW17G26   29.95F
PINEY ISLAND     N/A    N/A N/A N/A MISG      29.97F
WILMINGTON     CLOUDY    69  66  90 SW18G26   29.98F


$$

NCZ011>013-027>030-043-044-078>080-089-090>093-098-050800-
COASTAL PLAIN

CITY           SKY/WX    TMP DP  RH WIND       PRES   REMARKS
AHOSKIE        PTCLDY    58  56  94 CALM      29.90R FOG
CLINTON        PTCLDY    65  63  93 S3        29.93F
ELIZABETHTOWN  CLEAR     67  62  84 S9        29.94S
GOLDSBORO      PTCLDY    65  65  99 SW8       29.89S
GREENVILLE     CLEAR     64  63  94 SW16G22   29.92S
HAVELOCK       MOCLDY    68  64  87 SW25G41   29.97S
KENANSVILLE    CLEAR     65  61  85 SW3       29.94F
KINSTON        PTCLDY    65  62  87 S13       29.93S
NEW BERN       CLEAR     67  63  87 SW16G22   29.95F
RICHLANDS      PTCLDY    66  63  88 S17       29.94F
ROCKY MOUNT    CLEAR     65  60  84 S10       29.88S
WASHINGTON     CLEAR     66  61  83 SW10G21   29.91F
WHITEVILLE     CLEAR     67  62  84 S10       29.95S

$$

AMZ130-135-150-152-154-156-158-170-250-252-270-ANZ085-086-088-633-658-670-050800-
MARINE OBSERVATIONS

STATION/POSITION TIME  TEMP    WIND        PRES    WAVE   SWELL
                       AIR SEA DIR/SP/G            HT/PER HT/PER
                 (UTC) (F)     (DEG/KT/KT) (MB)    (FT/S) (FT/S)
CHESAPEAKE LIGHT 0600   41     320/  9/  9 1012.7
64 E VA BEACH    0650   55 51  210/ 21/ 25 1011.6    7/ 7   2/12
DUCK             0600   59 35  200/ 17/ 21 1011.0
2 E DUCK         0611      36                N/A     3/11   2/11
10 NE DUCK       0622      38                N/A     4/ 7
OREGON INLET     0600   50 49  190/ 18/ 22 1013.8
HATTERAS CG      0600   56 47  230/ 11/ 14 1015.4
CAPE LOOKOUT     0700   60     230/ 10/ 13 1015.5
BEAUFORT LAB     0600   55 47  250/  6/ 10 1014.7
27 SE WRIGHTSVLE NOT AVBL
5 SE WRIGHTSVLE  NOT AVBL
225 S CAPE HAT   0650   73 73  210/ 21/ 25 1020.1    6/11   3/11
41 SE CHARLESTON 0650   70 69  210/ 17/ 19 1016.0    6/ 7   3/ 9

$$


USA.gov is the U.S. government's official web portal to all federal, state and local government web resources and services.